Time,TemperatureF,DewpointF,PressureIn,WindDirection,WindDirectionDegrees,WindSpeedMPH,WindSpeedGustMPH,Humidity,HourlyPrecipIn,Conditions,Clouds,dailyrainin,SoftwareType,DateUTC
2013-01-09 00:00:00,44.5,30.6,30.17,South,180,4.0,12.0,58,0.00,,,-99.99,WeatherLink 5.6,2013-01-09 05:00:00,
2013-01-09 00:30:00,44.8,31.3,30.17,South,180,6.0,13.0,59,0.00,,,-99.99,WeatherLink 5.6,2013-01-09 05:30:00,
2013-01-09 01:00:00,45.7,33.4,30.17,South,180,8.0,17.0,62,0.00,,,-99.99,WeatherLink 5.6,2013-01-09 06:00:00,
2013-01-09 01:30:00,45.6,34.1,30.17,South,180,6.0,16.0,64,0.00,,,-99.99,WeatherLink 5.6,2013-01-09 06:30:00,
2013-01-09 02:00:00,46.1,34.6,30.17,South,180,10.0,23.0,64,0.00,,,-99.99,WeatherLink 5.6,2013-01-09 07:00:00,
2013-01-09 02:30:00,45.8,34.7,30.17,South,180,8.0,19.0,65,0.00,,,-99.99,WeatherLink 5.6,2013-01-09 07:30:00,
2013-01-09 03:00:00,45.3,35.4,30.19,South,180,8.0,17.0,68,0.00,,,-99.99,WeatherLink 5.6,2013-01-09 08:00:00,
2013-01-09 03:30:00,45.1,35.5,30.19,South,180,6.0,16.0,69,0.00,,,-99.99,WeatherLink 5.6,2013-01-09 08:30:00,
2013-01-09 04:00:00,45.4,36.5,30.19,South,180,6.0,16.0,71,0.00,,,-99.99,WeatherLink 5.6,2013-01-09 09:00:00,
2013-01-09 04:30:00,45.1,36.6,30.20,South,180,9.0,23.0,72,0.00,,,-99.99,WeatherLink 5.6,2013-01-09 09:30:00,
2013-01-09 05:00:00,45.1,37.3,30.20,South,180,11.0,20.0,74,0.00,,,-99.99,WeatherLink 5.6,2013-01-09 10:00:00,
2013-01-09 05:30:00,43.6,35.9,30.20,South,180,8.0,17.0,74,0.00,,,-99.99,WeatherLink 5.6,2013-01-09 10:30:00,
2013-01-09 06:00:00,44.0,36.6,30.20,SSE,157,8.0,16.0,75,0.00,,,-99.99,WeatherLink 5.6,2013-01-09 11:00:00,
2013-01-09 06:30:00,44.2,37.1,30.21,South,180,9.0,20.0,76,0.00,,,-99.99,WeatherLink 5.6,2013-01-09 11:30:00,
2013-01-09 07:00:00,44.3,37.5,30.22,South,180,9.0,18.0,77,0.00,,,-99.99,WeatherLink 5.6,2013-01-09 12:00:00,
2013-01-09 07:30:00,43.5,37.1,30.22,South,180,7.0,17.0,78,0.00,,,-99.99,WeatherLink 5.6,2013-01-09 12:30:00,
2013-01-09 08:00:00,44.4,37.6,30.24,South,180,7.0,18.0,77,0.00,,,-99.99,WeatherLink 5.6,2013-01-09 13:00:00,
2013-01-09 08:30:00,45.0,38.2,30.26,South,180,6.0,18.0,77,0.00,,,-99.99,WeatherLink 5.6,2013-01-09 13:30:00,
2013-01-09 09:00:00,45.6,39.1,30.26,South,180,5.0,16.0,78,0.00,,,-99.99,WeatherLink 5.6,2013-01-09 14:00:00,
2013-01-09 09:30:00,45.6,38.8,30.26,South,180,6.0,16.0,77,0.00,,,-99.99,WeatherLink 5.6,2013-01-09 14:30:00,
2013-01-09 10:00:00,45.7,38.9,30.26,South,180,8.0,19.0,77,0.00,,,-99.99,WeatherLink 5.6,2013-01-09 15:00:00,
2013-01-09 10:30:00,47.2,40.4,30.26,South,180,7.0,15.0,77,0.00,,,-99.99,WeatherLink 5.6,2013-01-09 15:30:00,
2013-01-09 11:00:00,47.4,40.2,30.28,South,180,3.0,14.0,76,0.00,,,-99.99,WeatherLink 5.6,2013-01-09 16:00:00,
2013-01-09 11:30:00,48.2,42.0,30.27,SE,135,0.0,3.0,79,0.00,,,-99.99,WeatherLink 5.6,2013-01-09 16:30:00,
2013-01-09 12:00:00,48.3,43.1,30.27,SE,135,0.0,1.0,82,0.00,,,-99.99,WeatherLink 5.6,2013-01-09 17:00:00,
2013-01-09 12:30:00,47.5,44.7,30.26,SSE,157,0.0,1.0,90,0.04,,,-99.99,WeatherLink 5.6,2013-01-09 17:30:00,
2013-01-09 13:00:00,44.9,42.7,30.29,NW,315,1.0,6.0,92,0.06,,,-99.99,WeatherLink 5.6,2013-01-09 18:00:00,
2013-01-09 13:30:00,45.9,44.3,30.27,NNW,337,0.0,1.0,94,0.04,,,-99.99,WeatherLink 5.6,2013-01-09 18:30:00,
2013-01-09 14:00:00,48.0,46.6,30.26,NW,315,0.0,1.0,95,0.02,,,-99.99,WeatherLink 5.6,2013-01-09 19:00:00,
2013-01-09 14:30:00,47.9,46.5,30.25,SSE,157,0.0,3.0,95,0.00,,,-99.99,WeatherLink 5.6,2013-01-09 19:30:00,
2013-01-09 15:00:00,47.5,46.1,30.26,SE,135,1.0,2.0,95,0.00,,,-99.99,WeatherLink 5.6,2013-01-09 20:00:00,
2013-01-09 15:30:00,47.0,45.6,30.25,South,180,3.0,11.0,95,0.00,,,-99.99,WeatherLink 5.6,2013-01-09 20:30:00,
2013-01-09 16:00:00,46.0,44.9,30.26,South,180,4.0,12.0,96,0.00,,,-99.99,WeatherLink 5.6,2013-01-09 21:00:00,
2013-01-09 16:30:00,45.9,44.8,30.27,South,180,3.0,11.0,96,0.00,,,-99.99,WeatherLink 5.6,2013-01-09 21:30:00,
2013-01-09 17:00:00,46.3,45.2,30.26,South,180,6.0,14.0,96,0.00,,,-99.99,WeatherLink 5.6,2013-01-09 22:00:00,
2013-01-09 17:30:00,45.8,44.7,30.27,South,180,5.0,13.0,96,0.00,,,-99.99,WeatherLink 5.6,2013-01-09 22:30:00,
2013-01-09 18:00:00,45.5,44.4,30.28,South,180,4.0,10.0,96,0.00,,,-99.99,WeatherLink 5.6,2013-01-09 23:00:00,
2013-01-09 18:30:00,45.2,44.1,30.30,SSW,202,1.0,6.0,96,0.00,,,-99.99,WeatherLink 5.6,2013-01-09 23:30:00,
2013-01-09 19:00:00,46.4,45.3,30.32,SW,225,0.0,1.0,96,0.00,,,-99.99,WeatherLink 5.6,2013-01-10 00:00:00,
2013-01-09 19:30:00,45.2,44.1,30.33,West,270,0.0,1.0,96,0.00,,,-99.99,WeatherLink 5.6,2013-01-10 00:30:00,
2013-01-09 20:00:00,45.4,44.3,30.33,North,-999,0.0,0.0,96,0.00,,,-99.99,WeatherLink 5.6,2013-01-10 01:00:00,
2013-01-09 20:30:00,45.8,44.7,30.34,North,-999,0.0,0.0,96,0.00,,,-99.99,WeatherLink 5.6,2013-01-10 01:30:00,
2013-01-09 21:00:00,46.0,45.2,30.34,North,-999,0.0,0.0,97,0.00,,,-99.99,WeatherLink 5.6,2013-01-10 02:00:00,
2013-01-09 21:30:00,45.9,45.1,30.34,North,-999,0.0,0.0,97,0.00,,,-99.99,WeatherLink 5.6,2013-01-10 02:30:00,
2013-01-09 22:00:00,45.5,44.7,30.34,North,-999,0.0,0.0,97,0.00,,,-99.99,WeatherLink 5.6,2013-01-10 03:00:00,
2013-01-09 22:30:00,45.8,45.0,30.35,NNW,337,0.0,6.0,97,0.00,,,-99.99,WeatherLink 5.6,2013-01-10 03:30:00,
2013-01-09 23:00:00,45.9,45.1,30.35,North,0,0.0,4.0,97,0.00,,,-99.99,WeatherLink 5.6,2013-01-10 04:00:00,
2013-01-09 23:30:00,46.0,45.2,30.35,North,0,0.0,6.0,97,0.00,,,-99.99,WeatherLink 5.6,2013-01-10 04:30:00,